528  
ASUS43 KOAX 231710  
RWRNE  
 
WEATHER ROUNDUP FOR NEBRASKA  
NATIONAL WEATHER SERVICE OMAHA NE  
1200 PM CDT SUN APR 23 2017  
 
NOTES: SATELLITE DATA IS BEING USED TO AUGMENT CLOUD COVER ABOVE  
12000 FEET.  
"FAIR" INDICATES FEW OR NO CLOUDS BELOW 12,000 FEET WITH NO  
SIGNIFICANT WEATHER AND/OR S TO VISIBILITY
.  
 
* THESE STATIONS DO NOT REPORT WEATHER SUCH AS RAIN...SNOW OR FOG.  
 
NEZ001>004-019>022-054>056-231800-  
NEBRASKA PANHANDLE  
 
CITY SKY/WX TMP DP RH WIND PRES REMARKS
 
SCOTTSBLUFF CLOUDY 64 36 35 SE14 29.88F  
ALLIANCE MOSUNNY 60 35 39 S24G31 29.88F  
CHADRON CLOUDY 66 35 31 SW20G26 29.81F  
KIMBALL CLOUDY 59 40 50 S10G20 29.94S  
SIDNEY CLOUDY 56 40 55 S20G28 29.96F  

 
 
NEZ057>060-069>072-079>082-231800-  
SOUTHWEST NEBRASKA  
 
CITY SKY/WX TMP DP RH WIND PRES REMARKS
 
NORTH PLATTE SUNNY 63 31 30 S24G36 30.01F  
IMPERIAL MOSUNNY 58 36 43 S20G29 30.01F  
LEXINGTON SUNNY 63 28 26 S25G31 30.06F  
MCCOOK SUNNY 62 33 33 S15G29 30.05F  
OGALLALA MOSUNNY 63 33 32 S28G33 29.96F  

 
 
NEZ005>010-023>029-035>040-094-231800-  
NORTH CENTRAL NEBRASKA  
 
CITY SKY/WX TMP DP RH WIND PRES REMARKS
 
VALENTINE PTSUNNY 65 29 25 S28G40 29.91F  
AINSWORTH MOSUNNY 61 32 33 SW28G37 29.94S  
BROKEN BOW SUNNY 62 28 27 S23G36 30.01F  
O'NEILL SUNNY 64 28 25 S21G29 29.99F  
ORD SUNNY 62 28 27 S21G35 30.02F  
THEDFORD MOSUNNY 63 29 28 S25G37 29.97F  

 
 
NEZ041-046>049-061>064-073>077-083>087-231800-  
SOUTH CENTRAL NEBRASKA  
 
CITY SKY/WX TMP DP RH WIND PRES REMARKS
 
GRAND ISLAND SUNNY 65 29 25 S17G29 30.11F  
AURORA SUNNY 65 27 24 S20 30.11F  
HASTINGS SUNNY 64 28 25 SW15G24 30.13F  
HEBRON SUNNY 63 28 26 SW14 30.15S  
HOLDREGE SUNNY 62 27 26 SW17G25 30.09F  
KEARNEY * SUNNY 64 27 24 S20G26 30.10F  
YORK SUNNY 64 27 24 SW17G23 30.12F  

 
 
NEZ011>018-030>034-042>045-231800-  
NORTHEAST NEBRASKA  
 
CITY SKY/WX TMP DP RH WIND PRES REMARKS
 
NORFOLK SUNNY 66 30 26 SW23G29 30.05F  
ALBION SUNNY 65 31 28 S22 30.07F  
BLAIR SUNNY 65 32 28 SW15 30.11F  
FREMONT SUNNY 65 33 29 S10G18 30.11F  
TEKAMAH SUNNY 66 35 31 S15 30.10F  
WAYNE SUNNY 65 35 33 SW20 30.06F  

 
 
NEZ050>053-065>068-078-088>093-231800-  
SOUTHEAST NEBRASKA  
 
CITY SKY/WX TMP DP RH WIND PRES REMARKS
 
LINCOLN SUNNY 67 30 25 SW13G18 30.14F  
OMAHA EPPLEY MOSUNNY 66 30 26 S9 30.12F  
BEATRICE SUNNY 64 32 29 S12G17 30.15S  
FALLS CITY SUNNY 64 33 31 CALM 30.15F  
NEBRASKA CITY SUNNY 64 22 20 SW9 30.14F  
PLATTSMOUTH SUNNY 65 20 17 SW12 30.14S  

 
 
NEZ044-045-051>053-067-231800-  
OMAHA AREA  
 
CITY SKY/WX TMP DP RH WIND PRES REMARKS
 
OMAHA EPPLEY MOSUNNY 66 30 26 S9 30.12F  
BLAIR SUNNY 65 32 28 SW15 30.11F  
FREMONT SUNNY 65 33 29 S10G18 30.11F  
MILLARD SUNNY 66 33 28 SW5 30.13F  
OFFUTT AFB SUNNY 67 30 25 SW14 30.12F  
PLATTSMOUTH SUNNY 65 20 17 SW12 30.14S  
WAHOO FAIR 66 29 25 S10 30.12F  

 
 
 
CLICK HERE TO GO TO PREVIOUS BULLETINS.

The Nexlab NE Page Main Text Page